GFSNW_sfc_rhum_018.txt.gz
RH
96 95 96 96 95 94 84 70 60 64 75 66 89 67 48 55 53 49 54 55 58 63 65 68 69 68 62 52 61 66 71 77 86 63 56 62 66 70 71 87 80 94 95 81
97 96 98 98 96 94 83 80 78 72 63 81 89 64 61 58 53 56 56 59 59 62 70 71 66 66 62 58 61 71 68 79 82 47 57 55 69 72 73 79 89 86 92 77
97 98 99 99 95 96 80 71 85 79 86 80 62 63 65 62 56 55 55 59 57 62 68 68 75 76 68 67 68 76 67 78 67 73 55 64 80 78 75 79 93 86 80 66
98 99 99 95 95 96 75 78 80 81 86 77 73 68 62 63 62 55 58 63 61 63 75 78 84 78 70 64 72 75 70 82 83 78 73 77 78 81 81 87 83 89 71 79
98 98 99 94 95 95 82 78 85 89 89 75 62 72 70 66 62 58 66 65 69 67 69 65 76 79 82 75 76 82 82 85 93 94 88 90 95 84 84 86 88 85 83 88
98 98 99 95 95 86 88 97 90 84 90 80 76 79 61 58 58 63 59 63 66 71 69 71 75 70 71 79 78 79 83 91 94 89 93 92 78 68 84 81 75 69 77 62
98 99 99 95 95 91 93 96 81 94 90 91 78 72 62 65 62 65 65 62 64 65 69 66 64 63 61 77 83 81 99 96 99 95 92 93 59 63 59 67 64 64 68 79
98 98 97 95 94 96 97 97 78 91 97 93 83 72 70 71 73 77 71 82 78 69 70 86 83 82 67 76 94 94 89 98 98 99 93 81 64 57 73 76 68 70 77 86
98 98 96 95 95 95 97 99 90 84 92 87 74 75 77 83 85 84 88 86 83 76 95 89 90 85 75 77 73 90 93 91 94 100 97 97 69 59 78 78 87 77 81 76
98 98 97 95 96 98 96 99 93 87 95 92 86 82 82 81 87 90 92 86 85 85 99 99 95 90 82 90 86 83 98 98 99 96 98 89 69 62 63 85 74 80 80 74
97 98 98 96 96 98 94 99 98 91 97 93 90 83 85 88 88 92 86 88 92 99 100 99 98 96 91 93 79 82 78 89 95 99 99 95 64 69 76 68 75 68 75 83
97 96 98 97 95 99 90 97 98 97 93 83 96 92 89 78 72 86 91 83 89 95 99 99 99 100 98 92 96 80 86 75 83 80 85 70 60 62 65 66 75 81 90 88
97 97 97 98 96 96 92 98 99 97 100 93 91 87 82 86 85 78 90 97 85 92 90 98 99 95 96 97 97 89 82 76 86 81 71 67 69 67 69 82 86 90 92 90
98 98 98 98 97 95 91 96 98 97 100 100 94 81 83 80 87 86 82 82 93 93 99 99 100 100 88 99 87 95 90 90 93 90 76 76 76 74 84 91 89 89 86 82
98 98 99 99 98 96 97 98 98 96 94 100 99 89 82 80 86 89 90 89 94 99 100 100 100 99 99 100 99 100 90 88 94 89 67 79 83 96 87 91 93 74 76 75
99 99 98 98 98 96 98 99 96 98 96 100 100 94 92 87 84 91 92 95 96 99 100 100 99 89 95 100 100 75 71 70 70 78 71 92 91 90 85 79 71 72 74 75
99 99 99 99 98 98 99 98 96 98 95 100 100 100 93 90 90 96 96 95 98 98 100 100 99 98 96 100 98 69 68 68 74 74 87 91 85 95 80 77 72 60 58 61
99 99 99 99 99 98 99 99 98 98 99 100 100 100 97 89 99 100 99 100 100 100 100 100 100 99 100 100 89 81 72 71 69 65 68 80 72 58 51 49 48 56 54 58
99 99 98 97 98 100 99 97 96 98 98 100 100 100 100 95 99 100 100 100 100 100 100 100 99 100 99 86 80 81 79 82 83 84 72 63 61 54 53 56 61 58 66 69
98 96 98 100 100 98 97 95 100 100 100 100 100 99 100 96 100 100 100 100 100 95 98 98 100 100 69 72 71 76 77 74 72 83 88 79 76 69 65 67 66 73 77 74
98 100 100 100 97 97 99 100 100 100 100 100 99 99 100 97 99 100 100 100 99 100 94 99 98 98 80 78 84 77 71 67 63 63 65 65 74 75 73 75 81 84 84 79
94 97 98 99 100 100 99 100 100 99 98 99 98 98 99 100 100 100 100 99 99 98 97 99 99 91 83 83 72 68 68 67 62 61 64 68 71 75 82 81 79 84 81 84
84 95 100 95 98 98 99 98 99 99 99 99 100 100 100 100 100 99 99 99 97 97 98 96 94 87 74 75 70 63 64 68 76 65 64 67 72 74 80 79 80 85 85 83
90 92 99 93 98 97 97 97 96 98 100 100 100 99 98 98 98 99 97 97 98 97 100 96 95 78 66 66 66 68 64 77 79 75 75 80 83 82 82 86 86 89 88 83
92 84 87 99 94 97 100 100 100 100 99 98 99 99 97 99 99 94 95 94 92 95 93 96 92 75 74 71 68 68 80 83 83 78 84 86 87 89 86 83 88 90 90 90
90 94 99 98 98 98 99 100 100 100 97 96 93 97 96 98 96 97 94 98 98 90 96 92 82 75 75 72 75 75 77 79 79 80 84 84 88 88 85 85 87 89 91 92
86 96 99 98 98 97 98 97 98 97 92 90 97 88 74 91 99 100 97 96 92 93 93 95 80 73 73 74 75 82 84 79 82 83 86 85 85 90 94 94 87 90 91 92

GFSNW_sfc_rhum_021.txt.gz
RH
98 96 99 98 99 96 76 70 73 72 75 62 80 65 46 54 51 49 52 54 55 58 60 62 60 60 51 52 52 57 58 66 66 47 50 50 52 57 56 67 64 77 79 62
98 99 98 98 98 96 79 75 75 72 66 80 86 63 59 55 52 54 53 58 58 59 64 67 62 60 62 57 55 57 56 68 60 35 48 45 58 57 61 67 75 76 87 56
98 98 98 98 95 96 76 68 89 77 80 74 65 63 64 61 56 56 58 57 56 60 65 66 67 65 64 66 61 78 67 68 54 52 40 50 64 65 64 65 90 68 69 52
98 98 98 98 95 96 73 77 80 79 85 73 68 64 59 60 58 55 57 58 57 60 72 71 74 66 61 60 70 67 64 77 71 66 62 67 69 69 68 72 68 80 60 57
98 98 99 98 96 94 81 75 84 87 85 71 63 72 66 63 60 56 62 64 64 58 63 57 69 65 69 64 63 70 72 81 86 90 77 76 81 66 69 72 71 72 70 71
98 98 99 95 96 85 82 96 85 84 89 76 74 73 63 59 59 63 59 62 63 68 62 60 62 65 69 62 65 76 79 87 90 82 80 79 78 58 67 65 68 64 64 47
98 99 99 94 96 89 87 93 75 97 92 86 73 66 60 63 62 65 64 58 61 59 64 62 60 57 62 63 75 73 99 98 97 97 89 84 50 50 51 57 53 52 55 54
98 98 97 95 95 95 92 93 75 90 100 89 81 69 71 69 74 73 68 77 70 66 66 87 86 81 71 78 88 87 81 99 99 97 89 72 57 48 52 64 55 50 58 65
96 97 96 95 98 95 97 99 88 80 93 87 70 72 71 80 82 84 89 80 76 73 91 94 89 77 66 66 69 82 85 86 97 100 99 93 65 47 62 60 70 60 64 64
99 99 97 96 98 98 95 100 95 79 94 88 76 76 79 75 80 88 90 86 86 79 100 100 97 90 71 76 83 85 98 99 97 91 92 83 62 56 52 80 71 66 72 68
98 98 98 97 98 99 94 99 98 86 97 90 88 78 78 81 80 91 86 88 94 99 100 100 99 97 84 81 67 76 74 88 96 97 96 95 55 57 74 62 64 64 68 70
97 97 98 97 95 94 90 96 96 96 92 79 95 92 85 75 68 84 90 78 88 94 98 98 98 100 98 90 91 68 83 72 80 76 80 63 56 62 59 62 77 82 81 89
97 97 97 97 96 95 92 97 98 95 100 90 87 84 80 84 80 73 88 95 79 87 83 97 98 100 91 100 96 85 72 67 85 79 65 60 63 58 74 86 94 92 91 92
98 97 98 98 96 95 91 96 97 97 99 100 91 80 79 75 86 82 78 83 90 90 96 100 100 100 84 97 83 87 74 83 87 87 73 67 69 90 89 90 86 75 63 60
98 99 99 99 97 96 97 98 98 95 91 100 99 88 82 81 84 88 87 87 97 99 100 100 100 99 98 100 98 98 88 86 96 92 68 78 92 92 89 89 72 62 63 67
98 99 99 98 97 95 96 99 96 98 95 100 100 93 91 82 81 87 91 92 95 98 99 100 99 86 95 100 99 78 71 67 66 72 79 93 92 89 85 68 65 54 54 47
98 99 99 98 97 97 97 97 92 98 94 100 100 100 92 88 89 94 94 95 97 98 100 100 100 100 97 100 99 76 73 73 71 74 88 95 92 90 70 50 44 46 43 43
99 99 99 99 98 98 98 99 98 97 98 100 100 100 98 88 100 100 97 100 100 100 100 100 100 99 100 100 85 75 70 65 65 62 62 67 58 52 50 46 46 52 53 52
99 99 98 97 98 100 99 97 96 98 98 100 100 100 100 94 97 99 100 99 100 100 100 100 99 100 99 86 81 81 82 76 75 69 60 55 54 51 54 54 54 57 59 59
96 96 98 100 100 98 98 95 100 100 100 100 100 99 100 95 100 100 100 100 100 100 98 89 100 99 73 73 70 68 72 72 68 65 58 60 61 61 66 62 59 63 64 67
98 100 100 100 98 97 99 100 100 100 100 100 99 99 100 97 99 100 100 100 100 100 90 99 96 97 78 74 71 66 62 56 54 54 57 60 66 64 64 66 69 74 76 77
98 97 98 99 99 100 100 100 100 100 99 100 99 100 99 100 100 100 100 100 100 97 92 98 96 82 78 75 65 62 63 55 53 52 56 58 59 64 72 72 72 76 76 83
96 98 100 100 100 99 97 98 98 99 99 98 100 100 100 100 100 100 100 97 96 94 97 92 83 81 75 68 66 54 54 58 67 58 60 64 66 70 78 80 80 86 84 83
96 100 98 98 98 96 95 92 95 96 100 100 99 99 97 98 98 98 96 95 95 96 98 95 88 78 66 64 63 60 55 74 76 68 69 80 85 84 84 89 88 90 89 86
88 88 96 97 93 98 98 100 100 100 99 99 98 98 94 99 96 94 95 96 93 90 89 89 87 73 70 67 66 59 73 83 81 70 82 87 87 88 87 84 89 89 92 93
89 92 95 97 96 100 100 100 100 99 96 93 92 95 97 97 94 95 93 95 95 85 90 84 76 71 69 68 73 70 69 70 72 73 79 81 89 90 83 86 90 92 93 94
84 99 98 96 97 97 98 99 99 94 93 94 92 84 81 89 96 98 89 96 88 86 82 77 76 67 65 68 70 80 81 74 75 76 79 81 84 92 94 94 82 88 90 92

GFSNW_sfc_rhum_024.txt.gz
RH
97 98 97 97 97 94 70 54 41 58 63 41 43 41 32 49 36 35 37 37 38 39 43 44 45 46 41 41 39 39 44 45 42 31 37 38 37 41 38 56 52 56 56 39
97 97 97 98 96 94 48 44 47 52 56 67 62 44 42 39 36 38 37 43 40 42 46 52 46 45 48 41 40 43 43 48 37 35 39 40 42 40 42 43 58 58 82 41
96 97 98 98 96 93 50 42 76 46 42 44 40 43 44 45 41 43 40 42 39 43 47 44 52 50 50 50 46 75 58 46 35 34 27 32 36 32 37 44 74 51 47 36
97 97 98 99 96 95 51 46 62 59 70 52 42 41 39 42 44 42 39 41 40 42 59 49 53 48 50 48 62 53 48 52 45 39 36 35 40 42 38 43 46 60 48 34
97 98 98 97 96 93 52 52 59 58 59 50 42 56 44 40 44 38 42 41 42 37 43 35 49 42 44 40 49 51 52 60 66 67 45 42 50 41 39 42 43 41 42 44
97 98 99 94 96 85 51 65 57 58 76 56 53 50 42 40 41 49 41 40 45 59 43 38 46 46 46 43 46 56 63 72 77 85 57 62 87 49 39 41 38 43 51 36
98 99 98 94 96 85 54 60 48 96 80 60 49 44 43 44 43 50 46 40 45 50 48 47 45 45 50 52 58 57 91 90 93 99 92 92 44 33 34 41 38 32 33 34
98 98 96 96 98 93 59 60 53 82 100 60 55 48 51 52 52 52 49 58 58 48 49 72 100 71 96 78 61 62 62 90 100 100 78 51 42 36 41 46 48 37 42 44
98 98 96 99 98 96 68 76 64 61 88 77 46 51 48 59 62 63 71 63 56 54 78 93 99 74 50 45 56 67 69 78 95 96 100 88 43 36 44 45 56 46 50 56
98 98 97 97 97 96 68 82 83 50 90 66 54 54 55 51 57 71 70 67 73 61 100 100 100 87 52 55 88 90 99 97 99 92 99 69 39 43 42 78 73 54 53 64
98 97 97 95 95 93 71 84 83 64 82 64 66 57 56 55 52 79 73 73 83 97 100 100 98 100 71 66 49 66 67 98 100 95 100 96 40 45 73 62 56 53 60 68
98 97 97 96 95 94 84 70 82 82 71 69 76 74 64 59 46 53 73 61 66 73 95 99 100 100 98 98 84 48 67 54 58 57 60 41 38 48 46 52 62 76 89 89
97 97 98 96 95 94 82 74 83 74 97 74 71 72 65 64 60 53 70 79 60 67 67 87 98 100 81 100 88 63 48 46 70 67 48 42 46 46 69 70 87 85 85 84
97 97 97 97 94 94 87 80 80 77 90 100 76 62 62 59 64 63 60 63 71 72 78 100 100 100 64 90 71 77 53 49 59 62 56 56 53 69 82 86 84 71 49 45
97 97 98 97 95 94 87 84 82 78 73 99 92 69 66 60 64 67 65 66 75 95 100 100 100 84 89 89 92 95 53 57 79 87 65 78 87 91 87 82 57 41 40 38
99 98 98 98 95 95 77 80 82 81 74 98 100 76 74 65 64 72 74 70 82 92 95 100 89 71 85 100 100 65 55 53 57 78 70 83 90 87 70 47 42 36 36 32
98 99 99 98 96 91 81 77 84 91 78 100 100 98 77 70 69 72 73 84 88 85 99 100 98 95 86 100 100 80 67 59 63 68 76 95 94 87 47 41 36 36 29 29
98 98 99 98 97 97 93 91 97 88 92 98 100 100 96 72 96 99 86 98 100 100 99 100 100 98 100 100 79 64 60 60 62 62 63 69 52 44 39 30 30 33 31 32
98 99 98 97 98 100 99 94 91 92 90 100 100 100 100 79 94 96 98 95 100 98 100 100 99 100 99 86 72 69 70 65 60 52 44 38 36 29 29 30 31 36 38 37
98 96 99 100 100 98 97 96 100 100 100 100 100 97 100 85 100 100 100 100 100 100 98 80 100 99 75 65 62 59 60 59 58 52 36 34 37 34 37 38 38 41 43 52
99 100 100 100 98 95 99 100 100 100 100 100 99 99 100 94 99 100 100 100 100 100 87 97 94 88 72 56 50 45 46 40 32 32 33 32 36 40 46 47 50 55 59 63
99 97 97 98 99 100 100 100 100 100 100 100 100 99 98 100 100 100 100 100 100 98 74 99 89 66 62 54 49 52 48 35 33 31 34 36 41 47 55 57 57 67 72 88
97 97 100 100 100 100 100 100 100 100 98 93 100 100 100 100 98 100 100 100 100 85 98 81 64 66 59 52 44 41 37 42 53 35 37 43 50 58 71 81 81 91 84 80
100 100 100 100 100 99 97 97 98 99 100 100 100 100 99 100 100 100 100 95 87 96 91 91 74 66 61 47 45 42 39 83 65 51 51 74 90 87 92 92 93 92 91 89
100 100 99 98 97 99 100 100 100 98 97 96 98 98 92 100 100 94 97 99 91 78 80 76 65 65 54 52 52 45 63 93 76 51 78 96 93 92 89 90 93 90 94 96
96 96 96 97 100 100 100 100 100 97 98 97 94 98 100 99 94 98 94 84 78 78 81 70 60 58 55 50 54 52 49 54 54 56 62 71 92 95 78 84 95 96 99 98
99 96 96 95 100 100 100 100 99 94 99 99 88 91 86 84 91 91 76 88 83 74 73 59 54 53 46 47 53 78 72 61 57 59 62 66 72 94 95 96 72 80 85 88

GFSNW_sfc_rhum_027.txt.gz
RH
96 96 96 96 95 92 81 43 35 50 51 30 27 36 27 43 27 28 28 27 27 29 30 32 34 35 35 32 30 30 32 32 38 22 24 27 27 30 30 49 42 45 53 41
95 97 97 97 95 92 38 31 38 46 50 53 42 35 34 28 29 27 28 34 30 31 33 41 35 38 40 32 33 38 34 39 38 28 32 32 32 28 29 33 49 51 73 44
95 97 97 98 95 92 53 32 64 39 37 33 30 35 34 37 34 34 30 32 31 34 36 33 42 42 42 42 38 70 52 34 33 39 28 23 29 25 23 29 55 53 44 31
96 97 98 98 95 92 52 32 46 42 52 41 33 31 31 33 36 32 29 33 30 33 43 38 40 37 44 41 62 42 40 49 32 31 25 23 25 27 27 30 30 50 40 32
96 98 98 97 95 92 41 34 44 43 45 36 36 48 34 31 32 30 32 33 31 29 41 30 38 32 32 34 38 39 38 55 58 55 31 25 30 27 28 27 30 30 32 34
96 98 99 94 96 90 36 42 44 42 65 43 42 40 33 30 34 40 27 30 31 46 33 33 34 36 33 32 36 45 50 63 61 80 51 56 82 45 28 28 29 32 46 35
98 99 97 97 97 90 41 44 37 87 67 46 37 34 32 33 33 40 32 30 40 44 35 35 35 36 39 39 43 44 74 67 88 96 90 90 30 23 25 30 28 27 28 29
99 99 97 98 98 94 44 42 41 68 100 42 41 37 34 40 39 40 42 47 41 38 38 60 87 71 92 70 43 45 47 74 96 99 66 43 35 32 37 42 43 31 35 37
98 98 95 98 99 98 50 56 54 51 86 71 35 42 41 51 53 56 59 52 46 47 66 85 98 70 39 42 51 49 54 65 86 94 99 87 39 28 34 34 56 39 42 46
98 96 95 94 94 92 57 60 73 40 80 53 42 49 50 38 44 58 57 58 63 50 100 100 100 77 38 44 82 90 95 96 98 89 99 62 32 35 36 69 71 51 50 72
98 96 95 94 94 91 65 64 67 56 64 54 50 45 49 47 42 74 58 62 70 89 100 100 95 100 62 57 36 62 75 95 98 91 99 90 33 37 68 61 52 68 64 77
97 97 96 95 93 94 89 49 59 58 48 60 62 62 57 54 48 39 60 47 56 57 81 97 97 100 97 90 72 32 56 50 62 61 61 41 38 47 55 55 65 73 85 80
97 96 96 95 93 92 82 53 59 49 91 58 56 60 58 50 55 50 59 66 43 54 57 82 95 100 78 100 80 53 41 34 70 64 42 39 46 51 60 62 71 76 75 65
96 96 97 95 93 92 82 54 60 54 75 100 70 50 56 52 53 53 53 54 61 59 63 100 100 100 53 79 59 60 49 42 50 60 46 51 72 79 80 75 78 69 44 37
96 96 97 96 92 93 67 61 64 61 58 93 81 57 55 50 53 56 54 55 61 78 100 100 98 73 78 76 78 74 46 48 71 84 74 85 89 85 79 76 50 38 36 35
97 97 97 97 94 92 54 60 61 60 58 95 100 62 62 53 53 58 59 56 73 74 88 97 73 51 67 100 92 47 41 41 58 61 76 86 83 80 62 50 40 34 33 28
98 98 98 98 96 71 61 60 75 84 57 100 100 89 68 59 58 59 61 78 85 76 80 99 82 74 67 100 94 46 55 54 60 67 74 93 86 77 51 40 34 31 24 22
98 98 99 97 97 95 80 75 90 80 70 88 100 98 91 63 90 98 69 92 94 91 82 99 95 78 97 100 68 57 54 55 65 71 71 58 54 42 35 26 24 25 26 27
98 99 98 95 98 100 86 93 87 78 78 100 100 100 100 67 82 92 95 89 100 96 100 100 97 100 98 76 65 63 59 63 73 52 40 35 32 27 25 25 27 30 31 31
98 96 100 100 100 97 95 94 100 100 100 100 100 84 99 70 98 100 98 100 100 100 99 84 100 99 76 60 57 57 62 63 52 52 39 35 34 30 30 30 30 34 37 44
99 100 100 100 97 92 99 100 100 100 100 100 93 88 98 85 98 100 100 100 100 100 95 98 100 82 67 58 58 55 52 44 32 31 30 27 28 31 35 39 46 52 51 54
99 98 97 98 98 100 100 100 100 100 100 100 100 99 97 100 96 100 100 100 100 99 68 98 89 61 56 52 47 45 40 35 31 28 28 28 28 34 44 51 53 53 67 90
96 97 100 100 100 100 100 100 100 100 100 98 100 100 100 100 100 100 100 100 100 77 98 78 59 58 52 47 44 42 36 37 42 29 28 31 38 49 66 73 73 96 76 69
100 100 100 100 100 100 100 100 100 99 100 100 100 100 100 100 100 100 100 99 83 98 91 88 63 56 50 44 41 38 39 84 62 49 44 52 82 83 98 100 99 99 91 83
100 100 100 100 100 100 100 100 100 100 99 100 100 100 98 100 100 100 99 100 94 75 76 74 57 57 55 52 50 41 46 97 81 44 70 99 100 95 85 86 90 84 100 100
100 100 100 100 100 100 100 100 100 96 98 97 95 100 100 100 96 99 100 94 79 78 75 59 56 60 55 51 46 46 43 45 46 46 48 61 93 100 74 74 92 99 100 100
100 99 100 100 100 100 100 100 100 93 100 100 98 100 100 92 96 91 72 90 84 69 65 55 55 52 46 40 44 78 61 56 53 52 51 56 62 88 94 94 65 64 74 99

GFSNW_sfc_rhum_030.txt.gz
RH
94 96 95 95 94 91 76 58 42 58 56 36 33 40 25 43 24 25 25 23 20 24 25 27 29 32 36 28 26 29 28 31 49 22 20 21 24 29 29 71 50 63 66 49
95 96 96 96 94 92 56 36 48 51 52 53 45 32 28 23 24 22 25 29 26 27 29 38 32 40 35 28 35 44 35 42 56 36 32 29 24 22 23 30 57 63 80 50
95 97 97 98 95 92 59 43 67 39 42 39 34 34 34 34 30 28 25 27 27 30 34 30 38 44 40 38 39 68 55 32 33 50 28 23 26 21 21 27 68 59 54 39
95 97 98 98 95 92 57 43 46 34 53 43 32 29 27 32 36 29 27 30 28 30 43 35 37 38 43 38 58 39 39 50 34 31 24 23 22 21 22 25 30 49 40 31
96 98 98 94 95 94 55 46 43 39 41 34 34 45 30 29 26 30 30 30 28 29 39 31 37 33 33 36 37 36 37 64 65 62 27 27 31 25 28 25 27 26 31 34
96 98 97 96 96 89 45 40 42 44 61 41 43 42 31 28 30 36 26 26 31 50 38 39 36 34 30 28 37 42 49 74 78 84 60 64 87 57 29 28 27 32 47 34
97 98 96 98 98 94 58 54 39 89 69 44 35 31 28 28 33 35 28 27 43 42 30 34 33 36 37 33 40 40 76 76 95 96 93 84 32 24 26 31 29 30 29 30
98 98 98 99 99 99 50 50 53 75 100 45 36 34 31 37 36 35 45 44 37 34 34 68 72 85 93 66 37 40 44 83 96 100 73 48 35 32 40 46 47 33 43 47
98 95 94 95 93 92 55 66 66 59 88 63 32 34 38 50 53 55 57 46 41 40 76 98 98 83 46 52 52 48 47 73 94 99 92 81 45 28 32 34 63 52 57 67
98 95 94 94 92 91 66 67 76 53 82 49 47 47 51 39 52 66 57 58 63 49 100 100 100 86 34 55 80 96 93 95 95 84 94 70 36 33 34 66 77 67 65 75
97 96 95 93 92 92 74 69 70 65 68 54 47 41 44 45 50 82 58 67 75 96 100 100 97 100 76 61 37 78 81 94 97 89 99 87 35 44 82 68 61 68 68 74
96 96 95 94 92 91 90 55 58 64 59 65 59 60 56 53 50 46 62 52 62 70 89 95 96 100 100 97 81 27 63 63 75 71 74 50 48 64 64 65 73 73 70 61
96 95 95 94 92 91 87 58 64 58 92 63 61 63 54 50 54 54 67 76 44 52 64 85 96 100 87 100 86 56 35 30 72 64 44 39 60 64 64 67 76 70 64 57
96 95 95 94 93 93 92 58 63 60 82 100 73 47 54 49 51 50 54 56 65 66 74 100 100 100 58 92 68 71 55 47 52 55 43 45 71 73 74 78 70 57 44 36
96 96 96 92 92 92 68 63 61 61 65 96 83 51 51 47 50 52 52 60 66 83 100 100 99 85 87 87 86 88 51 52 73 79 64 64 83 86 82 76 55 39 36 35
96 96 96 96 95 95 61 62 62 61 60 96 100 63 60 50 50 54 57 56 75 80 97 98 84 51 82 100 92 50 35 34 52 61 66 72 80 78 68 56 41 34 33 28
98 97 98 97 94 75 70 69 84 90 70 100 100 95 66 57 54 60 71 75 87 89 93 100 90 82 69 100 98 45 40 47 54 63 72 88 81 68 57 45 35 33 23 23
99 99 98 96 99 94 80 83 86 86 73 88 100 98 93 62 95 98 70 98 93 88 88 99 93 80 100 100 70 49 43 54 64 69 69 65 58 51 39 28 24 26 27 28
99 99 96 94 94 93 85 94 92 74 79 100 100 100 100 65 87 94 98 92 100 96 100 99 91 100 97 79 64 55 55 60 64 57 47 40 37 30 27 26 28 30 32 33
98 95 99 100 100 96 98 83 97 100 100 100 100 80 97 70 99 100 100 100 100 100 99 90 100 98 76 60 54 54 55 64 59 58 46 37 36 33 31 31 31 37 43 48
99 100 100 100 96 88 98 100 100 100 100 100 96 90 97 83 95 100 100 100 100 100 96 98 99 94 71 62 60 60 62 60 48 35 32 29 30 32 35 40 53 66 67 69
99 97 97 97 98 100 100 100 100 100 100 99 99 99 94 100 92 100 100 100 100 100 86 100 93 67 63 59 58 55 49 37 33 30 29 29 29 34 54 64 68 69 79 88
96 97 100 100 100 100 100 100 100 100 100 99 100 100 100 100 99 100 100 100 100 91 100 88 76 63 52 49 46 45 39 49 50 31 32 34 40 51 76 80 79 88 82 78
100 100 100 100 100 100 100 100 100 100 100 100 100 100 100 100 100 100 100 100 99 98 96 87 80 56 49 45 45 43 46 70 65 66 58 63 82 86 90 98 93 96 95 88
100 100 100 100 100 100 100 100 100 100 100 100 100 100 100 100 100 100 100 99 96 92 94 96 77 63 59 57 50 47 64 91 84 62 73 86 90 93 88 88 90 88 94 93
100 100 100 100 100 100 100 100 100 100 100 100 100 100 100 100 100 99 100 97 93 100 92 81 72 72 70 65 62 61 58 64 66 65 65 68 85 89 79 83 94 90 90 97
100 100 100 100 100 100 100 100 100 99 100 100 100 100 97 97 97 95 92 99 96 89 86 79 75 70 66 59 58 76 70 71 68 67 67 68 71 85 90 89 79 78 81 98

GFSNW_sfc_rhum_033.txt.gz
RH
93 93 94 94 94 91 81 83 70 82 83 62 72 64 40 43 31 36 37 39 31 38 34 41 41 51 47 35 38 42 41 46 58 38 30 31 35 41 42 81 65 78 87 63
94 94 95 96 94 93 90 77 86 77 82 78 76 48 39 35 32 33 38 40 38 38 45 50 54 56 48 46 51 61 52 51 75 53 45 40 37 31 32 46 75 70 85 69
94 94 96 96 95 90 81 89 86 81 81 72 62 51 46 46 40 40 33 35 37 47 46 43 60 59 54 54 49 66 62 46 54 68 46 36 41 32 29 39 87 77 72 56
94 96 96 96 94 89 74 78 75 61 77 61 63 49 44 46 50 43 39 43 42 44 55 51 60 58 57 55 63 56 57 64 59 53 40 36 37 37 33 35 39 65 52 46
95 97 98 95 94 91 82 85 74 63 64 47 56 60 44 46 40 41 43 46 40 45 52 56 58 53 54 58 52 56 53 81 75 70 54 51 50 45 46 40 41 44 48 51
96 98 98 99 98 92 88 71 68 80 79 57 67 62 48 43 46 50 44 43 59 68 56 53 55 52 50 50 53 62 75 82 90 90 78 80 80 64 42 41 40 46 59 56
96 98 99 98 98 97 93 91 86 95 82 75 58 45 44 47 43 50 56 54 63 52 46 50 59 54 50 54 52 66 80 89 97 93 87 64 53 39 44 49 48 50 60 67
98 97 97 95 95 93 85 86 88 97 100 72 52 44 54 58 64 66 62 56 53 47 64 81 63 85 64 63 54 58 71 92 97 96 96 66 50 46 54 59 73 67 76 76
98 94 94 94 92 91 85 95 95 95 96 82 55 52 57 77 82 79 72 61 62 69 95 90 84 86 66 70 66 67 76 84 88 94 94 89 64 47 43 48 82 75 78 84
98 95 94 93 92 90 89 94 90 91 92 79 71 71 69 68 77 90 79 78 77 79 98 100 96 86 61 82 86 94 96 92 93 98 93 82 60 48 47 75 78 84 84 89
96 95 94 92 92 91 90 89 87 89 95 82 77 76 78 64 79 91 79 80 88 98 97 98 99 98 90 78 69 86 87 95 94 89 90 95 52 61 67 78 87 81 82 84
96 96 95 92 92 92 93 87 79 85 92 92 81 75 70 77 82 77 78 69 86 94 98 99 100 100 100 98 85 59 84 80 92 80 82 64 65 71 83 80 85 84 76 75
96 95 95 93 93 92 92 91 92 92 99 91 88 86 74 62 70 73 84 90 70 84 90 97 97 99 97 96 93 75 56 57 84 78 60 70 84 81 77 79 86 81 73 69
96 96 94 95 94 92 89 94 94 92 99 100 91 59 71 59 65 65 70 80 89 92 96 100 100 99 85 97 78 82 68 63 65 73 77 87 86 86 87 87 83 72 63 60
96 96 96 96 94 93 90 93 92 89 90 99 96 71 64 58 64 67 73 80 88 98 100 100 100 97 91 97 91 97 71 70 85 88 76 82 93 91 88 87 71 64 50 49
97 97 98 96 93 95 94 95 95 93 95 98 99 82 75 65 66 72 85 88 94 96 100 100 98 86 91 98 99 72 56 54 65 86 87 91 94 91 82 70 61 46 41 40
98 99 97 95 92 93 94 93 96 99 95 100 100 96 84 72 75 91 93 93 97 95 98 100 96 94 95 100 99 75 60 72 77 80 85 94 90 89 68 61 49 37 33 37
99 98 96 97 99 98 97 97 92 99 96 100 100 100 97 80 99 100 96 100 98 98 100 100 97 97 99 97 88 73 60 76 81 84 79 80 77 66 62 53 37 38 41 45
99 97 94 95 97 98 99 97 98 97 95 99 100 99 96 87 98 99 98 99 100 99 100 100 97 100 98 91 83 75 74 79 84 75 62 60 62 44 38 37 40 46 53 56
98 95 98 100 100 96 97 96 99 100 100 100 100 96 98 91 100 100 100 100 100 100 99 98 100 99 92 85 69 69 75 70 66 68 58 53 47 46 44 42 56 60 63 67
98 100 100 99 94 97 100 100 100 100 100 100 99 96 96 95 99 100 100 100 100 97 94 98 99 99 90 76 77 77 73 65 59 44 39 37 42 46 57 62 72 72 75 75
98 96 96 96 98 100 100 100 100 100 99 99 100 100 99 100 98 100 100 99 99 97 96 100 96 92 79 74 75 70 68 53 38 38 43 47 47 63 67 68 73 78 84 90
97 98 100 100 100 100 100 97 100 100 100 99 100 100 100 100 100 100 100 100 98 99 100 97 97 76 69 67 62 54 46 55 55 49 51 52 54 61 69 76 80 92 89 89
100 100 99 100 99 99 99 100 100 100 100 100 100 100 100 100 100 100 99 99 99 99 99 97 95 79 62 59 60 58 56 72 64 65 66 64 70 84 88 93 93 96 98 92
100 100 99 99 100 100 100 100 100 100 100 100 100 100 99 100 99 100 99 99 98 99 99 100 96 78 71 69 67 66 69 86 83 73 77 82 87 91 85 88 90 90 94 96
99 99 99 100 100 100 100 100 100 100 100 100 100 100 100 99 99 99 99 98 98 99 100 96 84 80 78 75 69 66 62 63 67 72 74 76 86 87 80 86 93 92 92 93
99 98 100 100 100 100 100 100 100 99 100 100 100 98 98 99 99 98 100 99 99 98 97 92 81 77 74 67 66 77 72 71 73 75 76 77 76 89 92 89 80 88 89 91